User: anonymous   Login
Location: Unspecified
(0.0000°N, 0.0000°E)
Time: 18:02:21
(UTC+00:00)
Language:

MUOS - Orbit

View from above orbital plane
View from above orbital plane
View from above satellite
View from above satellite

Ground track
Ground track

The orbit data is extracted from the following two-line orbital elements,

1 38093U 12009A   17328.26456736 0.00000000  00000-0  00000-0 0    08
2 38093   3.0872 341.5771 0058351 179.7219 180.2949  1.00270000    04
Epoch (UTC): 24 November 2017 06:20:58
Eccentricity: 0.0058351
inclination: 3.0872°
perigee height: 35540 km
apogee height: 36033 km
right ascension of ascending node: 341.5771°
argument of perigee: 179.7219°
revolutions per day: 1.00270000
mean anomaly at epoch: 180.2949°
orbit number at epoch: 0

The dashed part of the orbit path shows where the satellite is in the earth's shadow,  

DLR